TimeEST,TemperatureF,Dew PointF,Humidity,Sea Level PressureIn,VisibilityMPH,Wind Direction,Wind SpeedMPH,Gust SpeedMPH,PrecipitationIn,Events,Conditions,WindDirDegrees,DateUTC
12:51 AM,48.0,42.1,80,30.06,10.0,South,5.8,-,N/A,,Overcast,180,2011-12-15 05:51:00
1:51 AM,48.9,42.1,77,30.02,10.0,South,8.1,-,N/A,,Overcast,170,2011-12-15 06:51:00
2:51 AM,55.4,42.8,63,29.98,10.0,SSW,13.8,23.0,N/A,,Overcast,210,2011-12-15 07:51:00
3:51 AM,57.9,42.1,56,29.99,10.0,SSW,18.4,28.8,N/A,,Overcast,210,2011-12-15 08:51:00
4:51 AM,57.9,43.0,58,29.96,10.0,SW,15.0,25.3,N/A,,Overcast,220,2011-12-15 09:51:00
5:51 AM,57.9,43.0,58,29.94,10.0,SSW,19.6,26.5,N/A,,Overcast,210,2011-12-15 10:51:00
6:51 AM,57.9,44.1,60,29.92,10.0,SSW,17.3,27.6,N/A,,Overcast,200,2011-12-15 11:51:00
7:51 AM,57.0,45.0,64,29.91,10.0,SW,16.1,27.6,0.00,Rain,Light Rain,230,2011-12-15 12:51:00
8:09 AM,57.2,46.4,67,29.87,10.0,SW,12.7,24.2,0.00,Rain,Light Rain,220,2011-12-15 13:09:00
8:51 AM,55.9,48.0,75,29.91,10.0,SW,13.8,23.0,0.00,,Overcast,230,2011-12-15 13:51:00
9:43 AM,55.4,48.2,77,29.87,2.5,SSW,15.0,26.5,0.00,Rain,Light Rain,210,2011-12-15 14:43:00
9:51 AM,55.0,48.9,80,29.89,4.0,SSW,18.4,25.3,0.00,Rain,Light Rain,210,2011-12-15 14:51:00
10:33 AM,55.4,50.0,82,29.86,2.0,SSW,18.4,28.8,0.00,,Light Drizzle,210,2011-12-15 15:33:00
10:44 AM,53.6,50.0,88,29.85,2.0,SSW,13.8,24.2,0.00,,Light Drizzle,210,2011-12-15 15:44:00
10:51 AM,54.0,50.0,86,29.89,2.0,SW,18.4,34.5,0.00,Rain,Light Rain,220,2011-12-15 15:51:00
10:58 AM,53.6,50.0,88,29.85,1.5,SW,15.0,34.5,0.00,Rain,Light Rain,220,2011-12-15 15:58:00
11:06 AM,53.6,51.8,94,29.86,2.0,SW,16.1,-,0.00,Rain,Light Rain,220,2011-12-15 16:06:00
11:22 AM,53.6,51.8,94,29.85,5.0,SSW,15.0,24.2,0.00,,Light Drizzle,210,2011-12-15 16:22:00
11:51 AM,54.0,51.1,90,29.86,5.0,SW,19.6,28.8,0.02,,Light Drizzle,230,2011-12-15 16:51:00
12:51 PM,55.9,50.0,80,29.81,10.0,SW,17.3,28.8,0.00,,Light Drizzle,220,2011-12-15 17:51:00
1:14 PM,55.4,50.0,82,29.78,10.0,SW,13.8,29.9,0.00,,Light Drizzle,220,2011-12-15 18:14:00
1:51 PM,57.0,51.1,81,29.80,10.0,SW,18.4,28.8,0.00,,Overcast,220,2011-12-15 18:51:00
2:35 PM,55.4,51.8,88,29.76,7.0,SW,15.0,28.8,0.00,,Light Drizzle,230,2011-12-15 19:35:00
2:51 PM,55.9,52.0,87,29.78,9.0,SW,18.4,28.8,0.00,,Light Drizzle,220,2011-12-15 19:51:00
3:16 PM,55.4,51.8,88,29.77,2.5,SSW,13.8,25.3,0.00,Rain,Light Rain,210,2011-12-15 20:16:00
3:26 PM,55.4,51.8,88,29.77,6.0,SW,12.7,23.0,N/A,Rain,Light Rain,220,2011-12-15 20:26:00
3:40 PM,55.4,51.8,88,29.77,7.0,SW,12.7,-,0.00,Rain,Light Rain,220,2011-12-15 20:40:00
3:51 PM,55.9,52.0,87,29.79,4.0,SW,13.8,21.9,0.00,Rain,Light Rain,230,2011-12-15 20:51:00
4:36 PM,55.4,51.8,88,29.78,10.0,WSW,11.5,23.0,0.02,,Overcast,240,2011-12-15 21:36:00
4:51 PM,57.0,52.0,83,29.79,10.0,SW,12.7,23.0,0.02,,Overcast,230,2011-12-15 21:51:00
5:51 PM,54.0,48.9,83,29.83,7.0,West,21.9,32.2,0.10,Rain,Light Rain,270,2011-12-15 22:51:00
6:51 PM,54.0,48.0,80,29.86,10.0,West,10.4,-,0.00,,Overcast,270,2011-12-15 23:51:00
7:51 PM,54.0,45.0,72,29.88,10.0,West,17.3,31.1,N/A,,Overcast,260,2011-12-16 00:51:00
8:51 PM,51.1,42.1,71,29.91,10.0,West,15.0,26.5,N/A,,Scattered Clouds,270,2011-12-16 01:51:00
9:51 PM,46.9,36.0,66,29.96,10.0,West,16.1,25.3,N/A,,Mostly Cloudy,280,2011-12-16 02:51:00
10:51 PM,43.0,33.1,68,30.00,10.0,West,15.0,20.7,N/A,,Mostly Cloudy,280,2011-12-16 03:51:00
11:51 PM,41.0,28.9,62,30.04,10.0,West,15.0,24.2,N/A,,Overcast,260,2011-12-16 04:51:00